If you wish to contribute or participate in the discussions about articles you are invited to join SKYbrary as a registered user

 Actions

Frankfurt Hahn

From SKYbrary Wiki

EDFH
Airport
ICAO: EDFH
Summary
Name Frankfurt Hahn
Region Europe
Territory Germany DE.gif
Location Frankfurt Hahn
Serving
Coordinates 49° 56' 54.00" N, 7° 15' 48.00" E
Runways
Designator Length Width Surface ROPS
3/21 3800 m12,467.192 ft <br /> 45 m147.638 ft <br /> ASP yes/yes


METAR
Observation EDFH 241820Z 25005KT CAVOK 18/16 Q1011
Station Hahn
Date/Time 24 July 2021 18:20:00
Wind direction 250°
Wind speed 05 kts
Lowest cloud amount clouds and visibility OK
Temperature 18°C
Dew point 16°C
Humidity 88%
QNH 1011 hPa
Weather condition n/a


Frankfurt Hahn Airport

ICAO: EDFH IATA: HHN

Description

International airport serving the district of Rhineland-Palatinate to the west of central Germany. Despite its name, the airport is situated over 120 km (75 mi) to the west of the city of Frankfurt (by road).

Climatology

Temperate Marine climate/Oceanic climate (Köppen climate classification Cfb) - Moderately cool summer and comparatively warm winter.

Maps

Terrain

Loading map...

Airport Layout

Loading map...


Accidents & Serious Incidents at or in vicinity of EDFH

None on SKYbrary